GSAT0217 (PRN E27)

Last updated on June 15, 2019, 3:45 a.m. UTC

1 43057U 17079C   19165.67482238 -.00000069  00000-0  00000+0 0  9990
2 43057  56.5615 291.9047 0002453 249.6703 110.2795  1.70474414  9350
UTC
Height (km)
Latitude
Longitude
Inclination
Orbital Period
UTC large
Height (km)
Speed (km/s)
/
Latitude / Longitude
Inclination (degrees)
Orbital Period (minutes)
Azimuth
Elevation
Range (km)
Doppler Factor
iOS Compass Heading
iOS Angle

Next 30 passes for location: Hong Kong

Rise time Rise Azimuth (degrees) Set time Set Azimuth (degrees) Duration Max altitude (degrees)

No matching passes for this satellites